Regional Weather Roundup
Issued by NWS Albany, NY

Current Version | Previous Version | Text Only | Print | Product List | Glossary Off
Versions: 1 2 3 4 5 6 7 8 9 10 11 12 13 14 15 16 17 18 19 20 21 22 23 24 25 26 27
000 ASUS41 KALY 271910 RWRALY NEW YORK STATE HOURLY WEATHER ROUNDUP NATIONAL WEATHER SERVICE ALBANY NY 300 PM EDT FRI MAY 27 2022 NOTE: "FAIR" INDICATES FEW OR NO CLOUDS BELOW 12,000 FEET WITH NO SIGNIFICANT WEATHER AND/OR NO OBSTRUCTIONS TO VISIBILITY. NYZ032-033-038>043-046>054-057>066-NYZ062>081-082-084-272000- EAST CITY SKY/WX TMP DP RH WIND PRES REMARKS ALBANY CLOUDY 76 65 68 S15G23 29.81F GLENS FALLS CLOUDY 75 65 70 S12 29.78F POUGHKEEPSIE CLOUDY 78 66 66 VRB6 29.83F NEWBURGH CLOUDY 75 66 73 S6 29.86S MONTGOMERY CLOUDY 75 67 76 SW10 29.84F WHITE PLAINS MOSUNNY 77 65 66 S10G21 29.87F ISLIP CLOUDY 66 64 93 S10 29.92F FOG NEW YORK CITY PTSUNNY 77 64 64 S17G24 29.87S CENTRAL PARK PTSUNNY 77 65 66 SE6 29.89F $$ NYZ005>009-017-018-044>046-055-056-272000- CENTRAL CITY SKY/WX TMP DP RH WIND PRES REMARKS FULTON HVY RAIN 68 65 90 CALM 29.74F VSB 1 SYRACUSE CLOUDY 70 67 90 N3 29.74F ROME LGT RAIN 75 64 68 S7 29.75F ELMIRA LGT RAIN 69 65 86 VRB3 29.71F BINGHAMTON CLOUDY 69 62 78 S9G20 29.79F MONTICELLO LGT RAIN 68 66 93 S9 29.88F $$ NYZ026>034-041>043-087-272000- NORTH CITY SKY/WX TMP DP RH WIND PRES REMARKS WATERTOWN CLOUDY 65 63 93 W8 29.74S FORT DRUM NOT AVBL OGDENSBURG FAIR 66 64 94 SW7 29.70F MASSENA LGT RAIN 68 65 90 SW9 29.72F SARANAC LAKE PTSUNNY 72 62 71 SW17 29.76F PLATTSBURGH LGT RAIN 74 65 73 SE10 29.70F $$ NYZ001>004-010>016-019>021-085-272000- WEST CITY SKY/WX TMP DP RH WIND PRES REMARKS NIAGARA FALLS CLOUDY 73 62 68 W8 29.71F BUFFALO CLOUDY 71 60 68 S5 29.71F DUNKIRK CLOUDY 70 62 76 N7 29.74F JAMESTOWN CLOUDY 69 60 73 NW8 29.76S WELLSVILLE CLOUDY 68 61 78 NW6 29.77F ROCHESTER LGT RAIN 70 64 81 CALM 29.73F PENN YAN HVY RAIN 65 63 93 N3 29.73F VSB 1/2 $$ KEY WCI = WIND CHILL INDEX VSB = VISIBILITY HX = HEAT INDEX $$

USA.gov is the U.S. government's official web portal to all federal, state and local government web resources and services.